Weather History for Pensacola NAS, FL

Change the Weather History Date:

Sunday, October 20, 2013

  Actual Average Record
Temperature  
Mean Temperature 65 °F -  
Max Temperature 77 °F 76 °F 84 °F (1998)
Min Temperature 57 °F 57 °F 39 °F (1996)
Growing Degree Days 15 (Base 50)    
Moisture  
Dew Point 57 °F    
Average Humidity 77    
Maximum Humidity 96    
Minimum Humidity 52    
Precipitation  
Precipitation 0.00 in - - ()
Sea Level Pressure  
Sea Level Pressure 30.00 in    
Wind  
Wind Speed 5 mph (North)    
Max Wind Speed 12 mph    
Max Gust Speed -    
Visibility 10 miles    
Events      
Averages and records for this station are not official NWS values.
T = Trace of Precipitation, MM = Missing Value Source: NWS Daily Summary

Daily Weather History Graph

Daily Weather History Graph

Search for Another Location

Airport:

Trip Planner

Search our weather history database for the weather conditions in past years. The results will help you decide how hot, cold, wet, or windy it might be!

Date:

Astronomy

Oct. 20, 2013 Rise Set
Actual Time 6:54 AM CDT 6:12 PM CDT
Civil Twilight 6:30 AM CDT 6:36 PM CDT
Nautical Twilight 6:02 AM CDT 7:04 PM CDT
Astronomical Twilight 5:34 AM CDT 7:32 PM CDT
Moon 7:29 PM CDT (10/20) 8:25 AM CDT (10/20)
Length of Visible Light 12h 06m
Length of Day
11h 17m
Full, 97% of the Moon is Illuminated
Oct 20
Full
Oct 26
Last Quarter
Nov 3
New
Nov 9
First Quarter
Nov 17
Full

Hourly Weather History & Observations

Time (CDT) Temp. Dew Point Humidity Pressure Visibility Wind Dir Wind Speed Gust Speed Precip Events Conditions
12:56 AM 62.1 °F 57.9 °F 86% 29.99 in 10.0 mi NNW 5.8 mph - N/A   Clear
1:56 AM 61.0 °F 57.9 °F 90% 29.98 in 10.0 mi North 4.6 mph - N/A   Clear
2:56 AM 60.1 °F 57.0 °F 90% 29.97 in 10.0 mi Calm Calm - N/A   Clear
3:56 AM 59.0 °F 57.0 °F 93% 29.98 in 10.0 mi North 5.8 mph - N/A   Clear
4:56 AM 57.9 °F 55.9 °F 93% 29.98 in 10.0 mi North 6.9 mph - N/A   Clear
5:56 AM 57.0 °F 55.9 °F 96% 30.00 in 10.0 mi NNW 5.8 mph - N/A   Clear
6:56 AM 57.0 °F 55.0 °F 93% 30.02 in 10.0 mi North 5.8 mph - N/A   Clear
7:56 AM 57.0 °F 55.0 °F 93% 30.03 in 10.0 mi North 6.9 mph - N/A   Clear
8:56 AM 62.1 °F 57.0 °F 84% 30.04 in 10.0 mi North 8.1 mph - N/A   Clear
9:56 AM 66.9 °F 57.0 °F 70% 30.05 in 10.0 mi NNE 10.4 mph - N/A   Clear
10:56 AM 70.0 °F 57.0 °F 63% 30.05 in 10.0 mi NNE 10.4 mph - N/A   Clear
11:56 AM 72.0 °F 55.9 °F 57% 30.04 in 10.0 mi NNE 11.5 mph - N/A   Mostly Cloudy
12:56 PM 73.9 °F 55.0 °F 52% 30.01 in 10.0 mi NE 9.2 mph - N/A   Mostly Cloudy
1:56 PM 73.0 °F 55.0 °F 53% 29.99 in 10.0 mi NNE 6.9 mph - N/A   Mostly Cloudy
2:56 PM 73.9 °F 55.9 °F 53% 29.98 in 10.0 mi Calm Calm - N/A   Mostly Cloudy
3:56 PM 73.9 °F 57.0 °F 55% 29.98 in 10.0 mi SSW 3.5 mph - N/A   Mostly Cloudy
4:56 PM 72.0 °F 57.0 °F 59% 29.99 in 10.0 mi NW 5.8 mph - N/A   Mostly Cloudy
5:56 PM 70.0 °F 55.9 °F 61% 29.99 in 10.0 mi Calm Calm - N/A   Mostly Cloudy
6:56 PM 63.0 °F 57.9 °F 84% 29.99 in 10.0 mi Calm Calm - N/A   Mostly Cloudy
7:56 PM 63.0 °F 57.9 °F 84% 30.00 in 10.0 mi North 3.5 mph - N/A   Mostly Cloudy
8:30 PM 62.6 °F 57.2 °F 82% 30.00 in 10.0 mi North 3.5 mph - N/A   Mostly Cloudy
8:56 PM 63.0 °F 57.0 °F 81% 30.01 in 10.0 mi NNW 3.5 mph - N/A   Clear
9:56 PM 63.0 °F 57.0 °F 81% 30.02 in 10.0 mi NNW 4.6 mph - N/A   Clear
10:56 PM 61.0 °F 57.0 °F 87% 30.02 in 10.0 mi North 4.6 mph - N/A   Clear
11:56 PM 62.1 °F 57.0 °F 84% 30.01 in 10.0 mi North 3.5 mph - N/A   Clear